This is the latest recevied weather packets stored in our database for station/object DC1MAK-13. If no packets are shown the sender has not sent any weather packets the latest 10 day(s).
| Time | Temp. | Humidity | Pressure | Rain* | Wind** | Luminosity | Snow |
|---|---|---|---|---|---|---|---|
| 1788007591 | 23.89° C | 53% | 986.8 hPa | - | - | - | - |
| 1788006987 | 24.44° C | 52% | 986.9 hPa | - | - | - | - |
| 1788006681 | 23.89° C | 53% | 986.9 hPa | - | - | - | - |
| 1788006377 | 23.89° C | 52% | 987.1 hPa | - | - | - | - |
| 1788006372 | 23.89° C | 52% | 987.1 hPa | - | - | - | - |
| 1788006074 | 24.44° C | 52% | 987 hPa | - | - | - | - |
| 1788006068 | 24.44° C | 52% | 987 hPa | - | - | - | - |
| 1788005771 | 23.89° C | 53% | 987.2 hPa | - | - | - | - |
| 1788005765 | 23.89° C | 53% | 987.2 hPa | - | - | - | - |
| 1788005461 | 23.33° C | 53% | 987.3 hPa | - | - | - | - |
| 1788005167 | 23.89° C | 55% | 987.3 hPa | - | - | - | - |
| 1788004860 | 23.33° C | 55% | 987.3 hPa | - | - | - | - |
| 1788004557 | 22.78° C | 55% | 987.4 hPa | - | - | - | - |
| 1788004551 | 22.78° C | 55% | 987.4 hPa | - | - | - | - |
| 1788004253 | 23.89° C | 57% | 987.4 hPa | - | - | - | - |
| 1788003950 | 23.33° C | 57% | 987.4 hPa | - | - | - | - |
| 1788003347 | 22.78° C | 58% | 987.6 hPa | - | - | - | - |
| 1788003337 | 22.78° C | 58% | 987.6 hPa | - | - | - | - |
| 1788003039 | 22.78° C | 56% | 987.6 hPa | - | - | - | - |
| 1788003034 | 22.78° C | 56% | 987.6 hPa | - | - | - | - |
| 1788002736 | 23.33° C | 56% | 987.6 hPa | - | - | - | - |
| 1788002433 | 22.78° C | 58% | 987.7 hPa | - | - | - | - |
| 1788002427 | 22.78° C | 58% | 987.7 hPa | - | - | - | - |
| 1788001827 | 23.33° C | 55% | 987.7 hPa | - | - | - | - |
| 1788001820 | 23.33° C | 55% | 987.7 hPa | - | - | - | - |
* Rain since midnight (hover to see other rain measurements)
** Current wind speed in m/s (hover to see current wind gust speed)